Cloud_Cover
6 15 12 12 0 0 1 0 0 0 0 0 17 4 0 0 0 0 0 0 0 4 5 5 24 100 24 86 86 99 100 100 65 35 1 5 0 0 0 0 5 1 0 4 9
15 20 19 11 2 0 0 0 0 4 0 0 19 0 0 1 0 0 0 0 0 0 5 4 5 97 98 100 100 91 97 100 71 3 27 0 0 0 0 0 1 0 2 2 0
18 19 13 11 7 0 0 0 0 0 0 4 21 2 0 0 0 0 0 0 0 0 4 2 14 100 100 100 89 100 100 100 7 4 5 3 2 0 0 0 0 0 0 0 0
100 100 18 16 10 2 0 0 0 0 0 2 17 0 0 0 0 0 0 0 0 0 2 6 91 100 100 70 100 100 100 92 48 5 38 2 0 0 0 0 0 0 0 0 0
100 100 51 22 15 8 1 0 0 0 0 0 1 0 0 0 0 0 0 0 0 0 3 5 100 100 100 100 100 100 100 100 62 23 5 12 0 0 0 0 0 0 0 0 0
100 100 99 28 15 13 3 0 0 0 0 0 0 19 2 0 0 0 0 0 0 0 1 26 100 100 100 100 100 100 100 100 8 1 39 84 0 0 0 0 0 0 0 0 0
100 100 100 97 20 12 0 0 0 0 0 0 0 0 0 0 0 0 0 0 0 0 0 89 100 100 100 100 100 100 100 100 40 15 64 1 0 0 0 0 0 0 0 0 0
100 100 100 100 50 8 6 9 0 0 0 0 0 0 0 0 0 0 0 0 0 0 0 6 83 100 100 100 100 100 100 100 65 64 9 9 0 0 0 0 0 0 0 0 0
100 100 100 100 72 17 14 1 0 0 0 1 0 0 0 0 0 0 0 0 0 0 0 100 100 100 100 100 100 100 100 100 96 86 70 20 2 5 0 2 0 0 0 0 0
100 100 100 100 29 29 11 0 0 0 0 0 0 0 0 0 0 0 0 0 0 0 0 3 98 100 100 100 100 100 100 100 100 80 100 81 38 0 0 0 1 0 0 0 0
100 100 100 63 10 61 32 0 0 0 0 0 0 0 0 0 0 0 0 0 0 0 0 0 96 97 100 100 100 100 100 100 100 77 100 73 53 0 0 0 0 5 0 4 0
100 100 77 0 8 25 94 0 0 0 0 0 0 0 0 0 0 0 0 0 0 0 0 29 100 100 12 100 100 100 100 100 100 100 98 100 73 10 4 0 0 0 0 0 0
37 7 0 0 6 20 10 0 0 0 0 0 0 0 0 0 0 0 0 0 0 0 0 1 83 11 8 65 100 100 100 100 100 100 100 100 100 100 87 27 0 0 0 0 0
0 0 0 28 0 0 0 0 0 0 0 0 0 0 0 0 0 0 0 0 0 0 0 3 46 59 0 2 8 100 100 96 100 100 100 100 58 45 100 94 2 0 0 0 0
0 2 30 56 65 0 0 0 0 0 0 0 0 0 0 0 0 0 0 0 0 0 0 88 63 48 88 16 5 100 100 100 61 76 100 100 100 100 100 100 18 0 5 2 0
63 97 100 6 49 3 0 0 0 1 0 0 0 0 0 0 0 0 0 0 0 0 2 25 71 74 99 23 78 42 100 75 100 96 98 100 100 99 100 100 100 38 67 5 4
100 100 100 30 0 0 0 4 13 100 0 5 0 0 0 0 0 0 0 0 0 0 1 5 40 95 100 100 100 98 100 100 100 100 42 90 100 91 100 100 100 100 100 74 1
98 23 9 13 0 0 0 0 57 13 0 0 0 0 0 0 0 0 0 0 0 0 0 0 0 100 100 100 100 99 100 100 100 100 82 95 100 100 100 100 100 100 92 61 9
33 0 6 0 0 0 0 0 0 4 0 0 5 0 2 3 0 1 0 0 0 0 0 0 0 46 72 87 83 100 100 100 100 99 87 56 59 100 100 99 100 100 100 72 52
74 2 0 0 0 0 0 2 0 0 3 0 81 9 0 16 10 5 25 0 0 0 0 0 0 0 14 88 100 98 86 100 100 100 85 20 100 100 98 90 100 100 99 12 9
14 5 0 0 0 0 0 2 0 0 0 0 90 100 73 5 1 2 5 5 0 0 0 0 0 2 52 28 84 100 33 100 100 100 100 76 100 93 100 96 100 100 100 92 20
13 51 2 0 0 0 0 0 0 0 0 0 8 94 16 73 25 5 2 5 20 0 0 1 0 2 5 75 100 100 100 100 100 100 100 100 94 88 100 100 97 100 100 74 88
5 99 86 1 5 1 0 0 0 0 0 0 98 5 0 0 26 70 32 3 100 80 5 18 2 5 5 11 100 100 100 99 62 86 64 64 83 10 88 100 100 62 9 92 100
65 100 100 100 64 76 9 15 1 0 0 0 4 28 0 0 5 5 100 17 24 94 92 99 12 5 1 55 100 100 100 100 82 16 61 90 100 94 13 7 96 100 100 100 100
95 100 100 100 6 96 6 73 23 0 0 0 0 3 2 0 1 5 71 96 3 25 100 93 72 5 46 19 100 100 100 99 20 98 100 100 82 10 95 68 9 100 100 100 100
99 100 100 100 97 84 82 4 5 3 0 0 0 0 9 2 0 5 100 70 46 5 5 99 7 100 6 81 35 5 5 5 100 100 100 100 19 96 99 5 3 76 82 100 100
100 100 100 100 100 92 44 100 77 6 0 0 0 0 5 46 4 4 36 31 5 5 5 5 89 65 100 100 21 9 51 36 92 100 100 63 34 30 26 63 30 85 97 90 64